Location: Austin
(30.3000°N, 97.7500°W)
Time: 12:16:32
(UTC-05:00)

Spot 4 Rocket - Pass Details

Date: 08 April 2026
Orbit: 769 x 773 km, 98.8° (Epoch: 11 April)

Event Time Altitude Azimuth Distance (km) Brightness Sun altitude
Rises 20:13:50 0° 158° (SSE) 3,223 6.9 -5.0°
Reaches altitude 10° 20:16:08 10° 156° (SSE) 2,300 6.1 -5.5°
Maximum altitude 20:21:09 65° 75° (ENE) 843 4.0 -6.5°
Drops below altitude 10° 20:26:11 10° 354° (N) 2,314 6.8 -7.6°
Sets 20:28:31 0° 352° (N) 3,244 7.6 -8.1°
